When you browse on this site, cookies collect data to enhance your experience and personalize the content and advertising you see.
Visit our Privacy Policy to learn more. By continuing to use the site, you agree to this use of cookies and data.
  • In Hungary
  • List of Countries
  • For 7 days
  • Water Temperature
  • Weather Map
  • News
  • Weather Widgets
  • user-avatar
    Login

    Hourly Weather Baklushina

    Today, 28 January, Tuesday

    Time Temperature Precipitation Wind Pressure Humidity
    00:00 -23°C° 0 mm 1 mps 732 mmHg 96%
    01:00 -23°C° 0 mm 1 mps 732 mmHg 95%
    02:00 -23°C° 0 mm 1 mps 733 mmHg 96%
    03:00 -23°C° 0 mm 1 mps 734 mmHg 96%
    04:00 -22°C° 0 mm 1 mps 734 mmHg 97%
    05:00 -22°C° 0 mm 1 mps 735 mmHg 96%
    06:00 -25°C° 0 mm 2 mps 736 mmHg 96%
    07:00 -25°C° 0 mm 2 mps 736 mmHg 95%
    08:00 -25°C° 0 mm 2 mps 737 mmHg 94%
    09:00 -25°C° 0 mm 2 mps 738 mmHg 93%
    10:00 -25°C° 0 mm 2 mps 739 mmHg 92%
    11:00 -25°C° 0 mm 3 mps 740 mmHg 91%
    12:00 -24°C° 0 mm 3 mps 740 mmHg 90%
    13:00 -22°C° 0 mm 3 mps 741 mmHg 89%
    14:00 -23°C° 0 mm 3 mps 742 mmHg 90%
    15:00 -24°C° 0 mm 3 mps 742 mmHg 91%
    16:00 -25°C° 0 mm 4 mps 743 mmHg 92%
    17:00 -26°C° 0 mm 4 mps 744 mmHg 93%
    18:00 -27°C° 0 mm 4 mps 744 mmHg 93%
    19:00 -29°C° 0 mm 4 mps 745 mmHg 93%
    20:00 -29°C° 0 mm 4 mps 745 mmHg 93%
    21:00 -30°C° 0 mm 4 mps 746 mmHg 93%
    22:00 -30°C° 0 mm 4 mps 746 mmHg 93%
    23:00 -30°C° 0 mm 3 mps 747 mmHg 93%

    Tomorrow, 29 January, Wednesday

    Time Temperature Precipitation Wind Pressure Humidity
    00:00 -30°C° 0 mm 3 mps 747 mmHg 94%
    01:00 -31°C° 0 mm 3 mps 748 mmHg 94%
    02:00 -31°C° 0 mm 3 mps 748 mmHg 94%
    03:00 -31°C° 0 mm 3 mps 748 mmHg 94%
    04:00 -31°C° 0 mm 3 mps 748 mmHg 94%
    05:00 -31°C° 0 mm 3 mps 749 mmHg 94%
    06:00 -31°C° 0 mm 3 mps 749 mmHg 94%
    07:00 -31°C° 0 mm 3 mps 749 mmHg 95%
    08:00 -30°C° 0 mm 3 mps 749 mmHg 94%
    09:00 -29°C° 0 mm 3 mps 749 mmHg 93%
    10:00 -27°C° 0 mm 3 mps 750 mmHg 93%
    11:00 -25°C° 0 mm 3 mps 750 mmHg 91%
    12:00 -23°C° 0 mm 2 mps 750 mmHg 90%
    13:00 -20°C° 0 mm 2 mps 750 mmHg 89%
    14:00 -21°C° 0 mm 2 mps 750 mmHg 90%
    15:00 -23°C° 0 mm 2 mps 750 mmHg 92%
    16:00 -23°C° 0 mm 2 mps 750 mmHg 94%
    17:00 -24°C° 0 mm 2 mps 750 mmHg 94%
    18:00 -21°C° 0 mm 1 mps 750 mmHg 94%
    19:00 -22°C° 0 mm 1 mps 750 mmHg 94%
    20:00 -21°C° 0 mm 1 mps 750 mmHg 93%
    21:00 -20°C° 0 mm 1 mps 750 mmHg 92%
    22:00 -20°C° 0 mm 1 mps 750 mmHg 92%
    23:00 -19°C° 0 mm 1 mps 749 mmHg 92%

    Day after tomorrow, 30 January, Thursday

    Time Temperature Precipitation Wind Pressure Humidity
    00:00 -18°C° 0 mm 1 mps 749 mmHg 91%
    01:00 -17°C° 0 mm 1 mps 749 mmHg 91%
    02:00 -17°C° 0.1 mm 1 mps 749 mmHg 93%
    03:00 -16°C° 0.1 mm 1 mps 749 mmHg 95%
    04:00 -15°C° 0.1 mm 1 mps 749 mmHg 97%
    05:00 -15°C° 0.3 mm 1 mps 749 mmHg 96%
    06:00 -14°C° 0.3 mm 1 mps 748 mmHg 96%
    07:00 -14°C° 0.3 mm 1 mps 748 mmHg 96%
    08:00 -13°C° 0.4 mm 1 mps 748 mmHg 95%
    09:00 -12°C° 0.4 mm 1 mps 748 mmHg 95%
    10:00 -12°C° 0.4 mm 1 mps 748 mmHg 94%
    11:00 -11°C° 0.3 mm 1 mps 748 mmHg 94%
    12:00 -12°C° 0.3 mm 2 mps 747 mmHg 93%
    13:00 -10°C° 0.3 mm 2 mps 747 mmHg 93%
    14:00 -9°C° 0.2 mm 1 mps 747 mmHg 94%
    15:00 -10°C° 0.2 mm 1 mps 747 mmHg 95%
    16:00 -10°C° 0.2 mm 1 mps 747 mmHg 96%
    17:00 -10°C° 0.1 mm 1 mps 747 mmHg 96%
    18:00 -11°C° 0.1 mm 1 mps 747 mmHg 96%
    19:00 -12°C° 0.1 mm 1 mps 747 mmHg 96%
    20:00 -13°C° 0.1 mm 1 mps 747 mmHg 96%
    21:00 -13°C° 0.1 mm 1 mps 747 mmHg 96%
    22:00 -14°C° 0.1 mm 1 mps 747 mmHg 97%
    23:00 -14°C° 0 mm 1 mps 746 mmHg 96%

    31 January, Friday

    Time Temperature Precipitation Wind Pressure Humidity
    00:00 -14°C° 0 mm 1 mps 746 mmHg 96%
    01:00 -15°C° 0 mm 1 mps 746 mmHg 96%
    02:00 -15°C° 0.1 mm 1 mps 746 mmHg 96%
    03:00 -15°C° 0.1 mm 1 mps 746 mmHg 97%
    04:00 -15°C° 0.1 mm 1 mps 746 mmHg 97%
    05:00 -15°C° 0.1 mm 1 mps 746 mmHg 97%
    06:00 -15°C° 0.1 mm 1 mps 746 mmHg 97%
    07:00 -15°C° 0.1 mm 1 mps 746 mmHg 97%
    08:00 -15°C° 0.1 mm 1 mps 745 mmHg 96%
    09:00 -14°C° 0.1 mm 1 mps 745 mmHg 95%
    10:00 -14°C° 0.1 mm 1 mps 745 mmHg 95%
    11:00 -13°C° 0.2 mm 1 mps 745 mmHg 94%
    12:00 -12°C° 0.2 mm 1 mps 745 mmHg 94%
    13:00 -11°C° 0.2 mm 1 mps 745 mmHg 93%
    14:00 -11°C° 0.1 mm 1 mps 745 mmHg 94%
    15:00 -11°C° 0.1 mm 1 mps 744 mmHg 95%
    16:00 -10°C° 0.1 mm 1 mps 744 mmHg 96%
    17:00 -11°C° 0 mm 1 mps 744 mmHg 96%
    18:00 -11°C° 0 mm 1 mps 744 mmHg 96%
    19:00 -11°C° 0 mm 1 mps 744 mmHg 97%
    20:00 -11°C° 0 mm 1 mps 744 mmHg 97%
    21:00 -11°C° 0 mm 1 mps 744 mmHg 97%
    22:00 -11°C° 0 mm 1 mps 743 mmHg 97%
    23:00 -11°C° 0 mm 1 mps 743 mmHg 97%

    1 February, Saturday

    Time Temperature Precipitation Wind Pressure Humidity
    00:00 -10°C° 0 mm 1 mps 743 mmHg 96%
    01:00 -10°C° 0 mm 1 mps 743 mmHg 96%
    02:00 -10°C° 0 mm 1 mps 743 mmHg 96%
    03:00 -9°C° 0 mm 1 mps 742 mmHg 96%
    04:00 -9°C° 0 mm 1 mps 742 mmHg 96%
    05:00 -9°C° 0.1 mm 1 mps 742 mmHg 96%
    06:00 -9°C° 0.1 mm 1 mps 742 mmHg 96%
    07:00 -8°C° 0.1 mm 1 mps 742 mmHg 96%
    08:00 -8°C° 0 mm 1 mps 742 mmHg 95%
    09:00 -8°C° 0 mm 1 mps 742 mmHg 94%
    10:00 -7°C° 0 mm 1 mps 742 mmHg 93%
    11:00 -6°C° 0.1 mm 1 mps 741 mmHg 93%
    12:00 -4°C° 0.1 mm 1 mps 741 mmHg 92%
    13:00 -3°C° 0.1 mm 1 mps 741 mmHg 91%
    14:00 -3°C° 0 mm 1 mps 741 mmHg 92%
    15:00 -3°C° 0 mm 1 mps 741 mmHg 93%
    16:00 -4°C° 0 mm 1 mps 741 mmHg 94%
    17:00 -4°C° 0 mm 1 mps 741 mmHg 95%
    18:00 -4°C° 0 mm 1 mps 741 mmHg 95%
    19:00 -4°C° 0 mm 1 mps 741 mmHg 96%
    20:00 -6°C° 0 mm 1 mps 741 mmHg 95%
    21:00 -6°C° 0 mm 1 mps 740 mmHg 95%
    22:00 -6°C° 0 mm 1 mps 740 mmHg 95%
    23:00 -6°C° 0.1 mm 1 mps 740 mmHg 95%

    2 February, Sunday

    Time Temperature Precipitation Wind Pressure Humidity
    00:00 -6°C° 0.1 mm 1 mps 740 mmHg 95%
    01:00 -6°C° 0.1 mm 1 mps 740 mmHg 95%
    02:00 -6°C° 0.2 mm 1 mps 740 mmHg 96%
    03:00 -6°C° 0.2 mm 1 mps 740 mmHg 96%
    04:00 -6°C° 0.2 mm 1 mps 740 mmHg 96%
    05:00 -6°C° 0.3 mm 1 mps 740 mmHg 96%
    06:00 -6°C° 0.3 mm 1 mps 740 mmHg 96%
    07:00 -6°C° 0.3 mm 1 mps 740 mmHg 96%
    08:00 -4°C° 0.3 mm 1 mps 740 mmHg 96%
    09:00 -4°C° 0.3 mm 1 mps 740 mmHg 96%
    10:00 -4°C° 0.3 mm 1 mps 740 mmHg 95%
    11:00 -3°C° 0.2 mm 1 mps 741 mmHg 95%
    12:00 -3°C° 0.2 mm 1 mps 741 mmHg 95%
    13:00 -3°C° 0.2 mm 1 mps 741 mmHg 94%
    14:00 -3°C° 0.1 mm 1 mps 741 mmHg 95%
    15:00 -4°C° 0.1 mm 1 mps 741 mmHg 95%
    16:00 -5°C° 0.1 mm 0 mps 741 mmHg 96%
    17:00 -6°C° 0 mm 0 mps 741 mmHg 96%
    18:00 -7°C° 0 mm 0 mps 741 mmHg 96%
    19:00 -8°C° 0 mm 0 mps 741 mmHg 96%
    20:00 -9°C° 0 mm 0 mps 741 mmHg 97%
    21:00 -10°C° 0 mm 0 mps 741 mmHg 97%
    22:00 -10°C° 0 mm 0 mps 741 mmHg 97%
    23:00 -11°C° 0 mm 0 mps 741 mmHg 97%
    Show more